Temp
-13 -13 -13 -13 -14 -14 -14 -14 -14 -14 -14 -14 -14 -14 -15 -15 -15 -16 -16 -16 -16 -16 -16 -16 -16 -16 -16 -16 -16 -16 -16 -16
-13 -14 -14 -14 -14 -14 -14 -14 -14 -14 -14 -15 -15 -15 -15 -16 -16 -16 -17 -17 -17 -17 -17 -17 -17 -17 -16 -17 -17 -17 -17 -17
-14 -14 -14 -14 -15 -15 -15 -15 -15 -15 -15 -15 -15 -16 -16 -16 -17 -17 -17 -18 -18 -17 -17 -17 -17 -17 -17 -17 -18 -18 -18 -18
-14 -15 -15 -15 -15 -15 -16 -16 -16 -16 -16 -16 -16 -16 -17 -17 -18 -18 -18 -18 -18 -18 -18 -18 -18 -18 -18 -18 -18 -18 -18 -19
-15 -16 -16 -15 -16 -16 -16 -16 -17 -17 -17 -17 -17 -17 -17 -18 -18 -18 -18 -18 -18 -18 -19 -18 -19 -19 -19 -19 -19 -19 -19 -20
-15 -16 -16 -16 -16 -17 -16 -17 -17 -17 -17 -17 -18 -18 -18 -19 -19 -19 -19 -19 -19 -19 -19 -19 -19 -19 -19 -20 -20 -20 -20 -20
-16 -17 -17 -17 -17 -17 -17 -17 -18 -18 -18 -18 -18 -19 -19 -19 -19 -19 -19 -19 -19 -20 -20 -20 -20 -20 -20 -20 -21 -20 -20 -20
-18 -18 -17 -17 -17 -17 -17 -18 -18 -18 -18 -18 -19 -19 -19 -19 -20 -20 -20 -20 -20 -20 -20 -21 -21 -21 -21 -21 -21 -21 -21 -20
-19 -18 -18 -18 -18 -18 -18 -19 -19 -19 -19 -19 -19 -19 -20 -20 -20 -20 -20 -20 -21 -21 -21 -21 -21 -21 -21 -21 -21 -21 -20 -20
-19 -19 -19 -19 -19 -19 -19 -19 -19 -19 -19 -19 -19 -20 -20 -21 -21 -21 -21 -21 -21 -21 -21 -22 -22 -21 -21 -21 -21 -21 -21 -21
-20 -20 -20 -19 -20 -19 -19 -19 -19 -19 -19 -20 -20 -20 -21 -21 -21 -21 -22 -22 -22 -22 -22 -22 -22 -22 -21 -21 -21 -21 -21 -21
-20 -20 -20 -19 -20 -20 -20 -20 -20 -20 -20 -21 -21 -21 -22 -22 -22 -22 -22 -22 -22 -22 -22 -22 -22 -22 -21 -21 -21 -21 -21 -21
-21 -20 -19 -20 -20 -20 -20 -20 -20 -21 -21 -22 -22 -22 -22 -22 -22 -22 -22 -22 -22 -22 -22 -22 -22 -21 -21 -21 -21 -21 -21 -22
-20 -21 -20 -20 -21 -20 -21 -21 -21 -21 -22 -23 -23 -23 -23 -23 -23 -22 -22 -23 -23 -23 -22 -22 -22 -22 -21 -21 -21 -22 -22 -22
-20 -21 -21 -21 -21 -22 -22 -22 -22 -22 -22 -23 -23 -23 -23 -23 -23 -23 -23 -23 -23 -23 -22 -22 -22 -22 -21 -21 -22 -22 -22 -22
-21 -21 -21 -22 -22 -22 -22 -22 -22 -22 -23 -23 -23 -23 -23 -23 -23 -23 -23 -23 -23 -23 -23 -23 -22 -21 -21 -22 -22 -22 -23 -23
-22 -22 -21 -21 -23 -22 -22 -22 -23 -23 -23 -23 -23 -23 -23 -23 -23 -23 -23 -23 -23 -23 -23 -22 -22 -22 -22 -22 -22 -23 -23 -23
-22 -23 -22 -21 -23 -23 -22 -22 -23 -23 -23 -23 -23 -23 -23 -23 -24 -23 -23 -23 -23 -23 -23 -22 -22 -22 -22 -22 -23 -23 -23 -23
-22 -23 -23 -22 -23 -23 -22 -23 -23 -23 -23 -23 -23 -24 -24 -24 -24 -24 -23 -23 -23 -23 -23 -22 -22 -22 -22 -23 -23 -23 -23 -24
Height
5731 5732 5731 5731 5733 5731 5731 5731 5730 5729 5729 5729 5728 5728 5728 5727 5726 5725 5724 5722 5720 5718 5715 5712 5710 5708 5706 5703 5701 5699 5697 5695
5722 5722 5722 5722 5723 5722 5722 5721 5720 5720 5720 5719 5720 5719 5718 5717 5716 5714 5712 5710 5708 5705 5702 5700 5698 5695 5693 5690 5688 5687 5686 5684
5713 5712 5712 5711 5712 5711 5710 5709 5709 5709 5709 5709 5707 5707 5706 5706 5704 5703 5701 5698 5696 5693 5691 5688 5685 5683 5681 5679 5677 5676 5675 5672
5702 5700 5700 5699 5699 5699 5698 5698 5698 5699 5698 5697 5697 5696 5695 5695 5693 5690 5689 5686 5683 5681 5678 5676 5673 5672 5671 5669 5667 5665 5663 5661
5687 5688 5687 5688 5689 5688 5689 5689 5688 5686 5686 5685 5685 5685 5685 5682 5681 5679 5676 5674 5671 5669 5667 5666 5664 5661 5660 5658 5656 5654 5651 5648
5676 5676 5677 5677 5679 5677 5678 5678 5677 5676 5676 5675 5675 5674 5673 5671 5670 5669 5665 5663 5661 5660 5658 5655 5653 5652 5650 5648 5645 5643 5639 5637
5668 5667 5667 5668 5669 5668 5667 5666 5666 5666 5665 5665 5664 5663 5662 5660 5659 5658 5656 5654 5651 5650 5648 5647 5645 5643 5640 5637 5635 5633 5629 5626
5659 5660 5660 5660 5659 5658 5657 5657 5656 5656 5655 5654 5653 5652 5651 5650 5649 5648 5646 5645 5643 5641 5640 5638 5635 5633 5631 5629 5627 5623 5620 5617
5648 5649 5648 5649 5648 5648 5648 5648 5647 5646 5645 5644 5643 5642 5642 5641 5640 5639 5638 5637 5634 5632 5630 5629 5626 5624 5623 5620 5618 5615 5612 5609
5640 5638 5637 5638 5638 5638 5638 5638 5637 5636 5635 5635 5634 5633 5632 5632 5632 5630 5629 5628 5626 5624 5622 5620 5618 5616 5614 5611 5609 5607 5604 5601
5629 5627 5627 5627 5627 5626 5627 5627 5627 5627 5627 5626 5626 5624 5624 5624 5623 5621 5620 5619 5617 5614 5612 5611 5610 5607 5604 5603 5601 5600 5597 5595
5617 5616 5617 5617 5616 5617 5617 5618 5617 5617 5617 5617 5617 5617 5616 5615 5614 5613 5612 5610 5607 5605 5603 5602 5600 5598 5596 5595 5595 5593 5591 5590
5606 5605 5606 5606 5606 5608 5608 5608 5608 5608 5608 5608 5608 5608 5607 5607 5606 5605 5603 5601 5599 5596 5595 5593 5592 5591 5589 5589 5588 5587 5586 5584
5593 5594 5595 5595 5596 5597 5598 5598 5597 5598 5599 5599 5599 5598 5599 5599 5598 5596 5594 5592 5590 5589 5587 5585 5584 5584 5583 5583 5582 5581 5580 5578
5582 5582 5584 5585 5585 5585 5587 5588 5588 5589 5590 5590 5590 5590 5590 5589 5588 5587 5586 5584 5583 5581 5579 5578 5578 5577 5577 5577 5576 5575 5574 5572
5572 5572 5572 5574 5573 5574 5576 5579 5579 5579 5579 5580 5580 5581 5581 5579 5579 5578 5577 5577 5575 5573 5572 5572 5571 5571 5571 5571 5570 5569 5567 5565
5562 5559 5560 5561 5564 5563 5564 5568 5569 5569 5570 5571 5571 5572 5571 5570 5569 5569 5569 5569 5568 5567 5566 5565 5566 5566 5566 5565 5564 5562 5561 5559
5551 5549 5550 5553 5553 5553 5555 5557 5558 5559 5560 5561 5562 5563 5562 5562 5562 5562 5562 5561 5561 5560 5559 5559 5560 5560 5560 5559 5558 5557 5555 5553
5540 5540 5539 5545 5545 5544 5546 5547 5547 5549 5550 5551 5552 5553 5554 5554 5555 5554 5554 5554 5553 5553 5553 5553 5553 5554 5553 5552 5551 5550 5548 5546
Wind_Speed
45 42 42 42 41 43 44 44 45 46 47 48 49 48 48 48 48 48 49 50 53 55 56 57 56 56 55 56 54 51 49 48
45 44 45 44 42 44 45 45 46 47 48 49 48 48 49 50 50 50 52 54 55 57 59 58 57 57 56 54 48 46 45 44
44 45 44 44 43 44 44 45 46 47 48 47 48 48 49 50 50 51 53 55 57 58 57 57 57 54 47 44 43 45 46 45
49 45 48 47 42 41 41 41 42 43 44 46 46 47 48 49 49 52 54 56 57 58 58 53 46 46 45 44 41 41 42 44
56 44 46 41 38 37 37 37 39 41 42 45 46 46 47 49 52 55 57 58 60 55 47 48 50 43 39 38 41 43 45 48
48 38 38 38 40 36 37 38 40 43 45 46 47 48 50 52 54 57 50 47 47 47 44 44 42 39 41 43 44 46 46 44
42 40 38 37 36 37 39 42 43 45 46 47 48 50 51 51 49 47 47 47 47 44 41 44 45 41 42 43 43 41 41 44
33 29 28 28 30 35 38 40 40 41 41 43 44 45 46 46 46 46 44 42 42 41 40 40 40 41 41 38 38 40 41 41
31 27 27 28 31 34 35 35 36 37 37 39 41 43 45 45 44 45 41 39 38 39 40 39 38 37 36 35 36 37 33 31
29 30 29 28 30 32 33 33 34 36 37 39 40 42 42 43 42 38 39 40 40 39 38 37 35 36 37 36 34 28 27 28
36 35 33 33 33 35 35 35 35 34 35 36 39 40 39 38 38 39 39 39 38 38 37 35 35 34 32 30 25 25 25 25
43 41 38 37 37 38 38 35 34 34 35 35 36 36 37 36 37 37 39 38 38 37 34 34 34 33 29 23 23 24 24 24
46 44 42 40 39 37 35 34 35 35 35 36 36 36 36 35 35 36 39 38 36 31 30 31 31 29 23 21 23 23 23 24
49 42 43 41 39 37 34 32 34 34 34 36 37 37 36 37 36 38 39 34 31 29 30 31 28 23 20 22 23 23 24 24
46 43 38 34 33 32 35 33 34 34 33 34 37 40 40 36 38 37 34 26 26 30 29 27 23 19 21 23 24 24 24 23
45 42 40 35 36 34 34 34 36 36 37 38 38 39 37 39 39 34 30 26 29 30 27 24 20 20 22 25 26 25 23 23
40 41 40 38 31 36 37 33 34 37 38 40 40 37 38 38 32 26 25 30 31 30 25 22 20 21 25 26 26 25 24 25
39 36 37 37 30 33 36 33 33 34 35 38 38 36 34 28 25 27 27 30 31 28 24 22 22 24 25 25 24 25 25 26
37 31 36 33 34 33 34 33 34 35 36 35 35 32 28 25 24 30 32 34 31 27 23 23 25 26 25 24 24 24 26 27
Wind_Direction
270 270 269 271 275 275 277 278 279 280 281 282 282 282 282 283 284 285 284 283 284 286 289 290 290 289 287 288 289 287 286 285
269 270 272 275 277 277 277 277 276 276 277 278 280 281 282 284 285 285 285 285 286 287 287 288 287 288 288 288 286 283 284 285
271 274 277 277 278 278 277 277 279 282 283 284 282 284 284 283 283 284 284 284 284 285 285 287 289 289 285 284 284 288 291 291
279 287 287 286 283 279 277 277 278 281 279 280 279 279 280 280 280 280 281 283 285 287 288 287 284 283 281 284 290 293 292 289
286 282 282 283 281 276 277 273 270 270 271 271 273 277 278 277 278 278 282 285 286 283 281 281 285 284 284 286 287 287 289 291
281 280 276 273 273 270 271 267 268 268 268 268 270 272 275 276 279 282 282 279 283 282 287 291 287 286 289 286 285 289 293 292
276 274 272 272 271 268 266 266 266 267 269 271 271 272 273 276 281 283 282 285 287 286 287 286 289 285 282 285 289 291 291 293
270 268 269 272 268 263 262 265 267 270 271 273 275 276 277 279 279 285 289 290 288 288 287 284 283 286 289 290 290 291 293 293
269 269 268 271 260 260 262 264 267 269 271 273 275 275 275 278 280 285 287 286 285 285 287 289 290 290 291 289 292 293 291 294
266 273 270 272 270 270 271 272 274 275 275 276 276 277 278 280 282 282 284 283 285 287 287 287 288 289 286 290 291 289 293 296
280 277 277 279 277 277 277 275 273 274 274 274 273 274 276 278 279 280 282 287 289 289 287 284 288 289 287 287 287 289 294 294
281 280 279 278 277 277 276 276 276 278 277 275 272 271 272 274 277 282 287 291 289 289 286 284 286 288 287 284 286 289 289 292
276 276 276 276 276 276 276 275 275 275 274 270 267 268 271 274 280 287 289 289 289 287 287 286 286 284 280 282 285 286 287 289
278 275 273 273 273 272 271 270 269 271 272 269 268 269 274 278 281 285 286 286 286 285 286 285 281 277 277 279 282 283 285 285
280 283 279 273 269 266 270 266 264 268 270 267 269 276 280 280 280 281 280 280 286 289 287 280 274 272 275 278 279 281 281 285
277 278 271 268 270 267 261 259 262 265 266 268 269 273 276 278 279 274 270 277 291 290 280 276 269 268 274 275 276 277 281 286
273 270 270 273 264 263 263 260 258 259 260 265 270 272 275 276 274 260 271 277 289 285 276 271 266 270 273 274 276 279 284 288
264 266 266 268 269 261 266 266 262 262 260 261 265 268 268 269 257 261 271 281 287 276 273 266 267 270 273 276 280 284 288 291
270 267 270 263 268 268 268 267 264 262 262 262 262 261 260 259 264 267 265 279 280 270 266 264 266 269 271 276 281 287 291 294